Starlink 4185

operational
NORAD ID: 53139 Int'l Des: 2022-083 Owner: SPXS Country: US Constellation: starlink
LEOCIRCULAR

About Starlink 4185

Description loading...

Live Position

Loading 3D Globe...

Upcoming Passes

Altitude History

Altitude vs Time

uPlot chart will show altitude changes over time

Two-Line Element Set

1 53139U 22083H 25342.84481108 .00001215 00000-0 94387-4 0 9990
2 53139 53.2157 221.9391 0001462 93.5852 266.5307 15.08840660187506
Epoch: Dec 8, 2025 • Age: 7 hours

Current Status

Altitude 553.3 km
Velocity 7.58 km/s
Sub-Earth Point -39.02°S, 55.38°W
Launch Date Jul 17, 2022
Age 3.3 years
Type internet

Technical Details

Classification Payload
Mass 297.00 kg
Dry Mass 275.00 kg
Total Mass 297.00 kg
Length 0.20 m
Diameter 2.80 m
Span 9.00 m
Shape Box + pan
Manufacturer SPXS
Bus Type Starlink
Phase Status In Orbit
Owner/State SPXS/US

Large Constellations

Loading constellations...